Theta_e
342 343 344 344 345 345 347 344 344 345 346 352 353 354 359 358 359 358 360 362 358 355 354 353 353 355 359 354 354 357 361 360 358 358 356 357 356 360 363 361 365 365 366 365 365 364 364 364 365 365 366 365 365 362 362 362 364 365 360 365 358 355 353 349 344 350 347 343 350 345 346 349 345 350 349 348 345 348 345 347 349 350 349 349 356
342 342 344 344 345 345 346 345 346 343 346 351 354 353 358 358 358 359 361 361 357 356 355 356 358 357 356 355 353 356 359 357 358 359 357 359 361 363 363 364 364 365 366 367 366 363 365 363 365 368 366 365 367 367 366 364 364 369 362 363 360 354 350 349 346 348 343 338 339 340 342 348 348 345 343 345 345 346 346 352 352 349 347 349 351
340 341 344 344 345 345 345 344 345 345 346 349 354 355 356 358 360 362 361 361 358 358 356 360 360 361 358 357 355 355 360 361 358 359 361 359 361 363 365 365 365 364 365 366 365 363 364 364 365 368 367 364 365 368 369 363 368 362 363 360 362 354 350 351 352 352 339 343 347 343 334 335 343 345 345 343 343 342 345 343 346 344 343 347 353
340 342 342 343 345 346 345 345 346 347 348 349 352 355 353 360 363 363 362 363 361 360 358 363 364 365 365 361 360 357 356 361 362 363 362 358 358 360 366 367 364 362 363 361 363 366 366 365 362 365 371 371 369 368 366 367 363 362 358 359 362 356 347 344 348 350 351 342 339 340 339 336 333 339 342 340 340 341 342 338 339 342 344 347 356
341 342 343 342 344 345 346 347 348 348 349 351 351 352 351 356 364 365 364 362 363 365 363 365 365 366 364 366 367 364 361 362 360 358 360 358 358 360 362 365 365 362 362 362 363 365 368 367 367 365 366 366 366 365 364 361 361 361 359 361 362 355 346 346 349 348 349 357 347 343 340 336 336 337 336 341 342 336 340 340 342 342 341 347 349
342 341 342 343 345 345 348 348 348 349 349 352 352 352 355 355 359 366 365 365 365 366 369 366 363 362 362 358 356 356 355 355 354 356 356 355 354 358 362 362 362 364 362 362 364 363 366 370 371 368 367 366 367 364 361 362 357 364 360 360 360 362 357 347 342 350 351 355 354 350 353 342 342 341 340 332 348 340 338 340 339 343 343 346 353
341 341 341 342 346 347 349 350 349 350 351 353 353 353 355 356 358 364 366 365 366 366 369 367 362 362 361 357 353 353 353 354 360 358 355 355 357 360 359 363 363 363 362 363 365 365 367 369 370 368 364 367 365 366 361 359 358 359 362 362 361 359 364 352 347 343 350 352 349 351 351 352 348 345 339 335 334 341 342 338 339 342 341 342 344
339 339 342 343 345 346 348 350 350 349 351 352 352 354 356 358 360 361 366 365 367 366 366 366 361 361 360 355 352 353 354 357 362 356 358 360 359 360 361 362 363 364 363 366 365 365 367 369 372 369 367 363 363 364 361 362 359 365 360 366 367 364 363 360 354 351 344 347 353 350 348 346 348 349 347 345 342 335 336 342 341 340 341 342 343
340 338 340 340 342 344 346 348 349 348 349 350 352 355 356 359 360 361 364 367 367 368 365 364 364 361 359 355 352 354 358 360 362 360 360 362 360 361 362 362 365 370 365 363 364 364 367 370 370 372 367 368 363 361 360 361 359 365 362 365 362 361 365 361 362 356 352 347 348 355 354 349 345 345 341 344 345 341 335 339 341 340 345 341 345
341 341 342 341 342 344 346 347 347 347 348 351 351 353 356 359 360 360 361 364 366 368 365 364 364 363 359 355 355 356 356 358 360 361 361 364 363 364 365 363 362 367 368 365 366 368 368 373 370 367 368 364 362 361 363 366 363 364 366 364 369 368 366 361 362 358 357 358 352 352 354 353 350 347 345 344 341 344 339 336 338 339 341 344 346
340 341 342 342 344 345 345 345 347 347 349 351 350 351 354 356 359 359 362 362 366 368 365 363 364 363 360 358 357 357 357 356 355 359 363 362 363 361 365 365 363 360 363 367 366 367 368 370 366 366 366 366 365 366 366 362 359 361 362 367 362 365 361 366 358 359 357 356 355 355 353 348 344 345 347 347 347 342 339 338 337 340 340 342 346
342 342 343 343 344 344 345 345 345 346 347 350 349 350 352 355 358 360 362 362 364 364 364 362 360 361 361 362 360 359 359 356 359 358 358 361 362 360 361 359 362 361 362 362 365 363 368 367 368 366 365 365 365 366 365 361 361 360 363 363 367 362 365 363 362 362 360 360 352 353 348 345 351 344 347 349 341 344 345 343 340 344 341 341 346
343 344 343 342 342 343 343 345 346 346 348 350 349 349 351 354 357 359 360 362 364 364 363 363 361 361 360 361 361 361 359 362 360 364 362 361 360 361 366 364 363 362 361 361 361 363 368 369 367 366 369 367 371 373 370 368 369 368 364 362 364 367 362 363 362 361 359 357 356 355 354 352 352 352 348 347 351 349 347 339 335 341 341 337 345
345 343 343 344 344 342 345 345 346 346 347 348 349 351 352 352 356 357 360 363 364 364 363 362 361 361 361 360 361 361 360 364 363 361 362 362 362 361 360 359 361 361 360 361 361 362 364 367 371 370 372 374 376 375 374 375 372 369 365 364 363 366 370 368 364 361 361 359 356 354 355 353 353 353 354 349 346 345 344 341 347 347 344 339 342
351 344 342 343 343 345 344 345 346 346 348 349 349 352 352 352 355 357 359 361 364 363 363 363 361 362 361 360 360 360 361 360 360 360 360 362 361 361 362 356 358 359 359 362 364 364 363 366 368 368 372 375 373 370 367 368 376 368 370 371 367 364 367 367 364 361 358 358 357 356 355 355 355 357 351 350 352 350 350 351 352 348 343 343 341
348 346 342 343 345 346 344 345 346 347 349 350 350 352 351 353 355 356 357 360 361 363 363 364 364 363 363 362 360 361 364 361 362 364 364 362 362 360 360 364 361 365 363 364 365 366 365 366 369 366 372 372 370 370 371 366 367 365 369 369 364 360 364 365 361 360 359 360 358 361 362 356 357 355 356 355 355 357 356 357 355 350 345 342 345
345 348 343 344 343 345 346 345 346 348 349 350 353 352 353 354 354 355 357 358 359 363 362 364 364 364 362 362 360 360 360 360 359 361 360 362 363 362 360 360 361 363 359 364 366 367 367 368 365 363 369 372 370 372 365 369 373 366 363 364 363 363 365 365 366 363 363 360 359 359 357 358 359 362 359 356 361 363 356 355 354 350 353 349 345
344 348 352 346 344 344 345 346 348 350 350 351 352 353 354 353 356 354 354 356 355 358 358 360 363 363 364 362 361 360 358 357 359 360 359 361 363 364 360 358 359 359 360 359 361 364 367 367 367 366 365 366 367 365 367 369 370 363 366 371 366 368 365 365 365 364 364 363 360 360 360 357 360 359 357 355 360 365 356 356 358 358 362 354 353
342 344 345 343 342 343 345 347 351 353 353 352 353 353 353 354 355 351 352 352 352 353 354 357 360 359 360 361 360 360 358 357 357 361 360 359 359 358 360 360 360 361 362 366 363 362 365 364 368 367 368 368 367 367 369 370 370 363 364 364 363 370 367 366 367 366 362 362 363 362 364 360 362 361 361 357 359 362 361 360 359 360 360 360 357
341 343 346 343 342 343 344 347 349 352 352 353 353 352 353 355 354 352 353 354 352 350 352 354 355 356 356 360 361 362 361 358 358 360 358 358 359 355 357 359 359 357 360 364 366 363 363 364 362 363 363 365 366 364 367 367 370 364 361 358 359 365 366 366 362 360 360 362 365 362 363 362 363 363 362 362 361 362 359 354 359 359 362 364 363
344 346 346 347 347 345 347 349 351 353 354 354 352 355 357 359 355 355 355 354 352 352 351 352 354 355 356 356 359 359 358 358 357 357 359 359 359 361 357 359 361 359 361 362 363 365 365 364 363 362 361 362 364 365 363 366 367 365 367 366 368 369 366 361 363 362 362 362 365 362 363 366 367 363 362 361 359 360 363 362 360 356 354 359 361
345 347 345 343 346 348 349 351 353 352 352 354 354 361 359 353 355 356 356 354 354 353 355 357 354 354 354 354 355 357 358 357 355 355 356 357 359 360 361 362 358 360 363 358 363 363 364 364 359 360 363 361 365 367 364 364 366 363 362 356 362 369 367 363 365 366 363 361 364 365 362 362 364 362 362 360 359 356 356 355 355 354 358 356 364
347 348 347 348 349 351 351 351 352 354 356 356 357 359 359 360 360 359 357 357 355 354 356 357 354 355 355 353 354 355 356 354 353 352 351 354 357 358 361 359 358 357 361 360 358 360 362 363 360 363 361 362 367 366 365 363 364 366 364 362 356 362 362 360 360 360 361 363 359 361 360 360 358 360 361 360 358 358 357 357 355 357 361 359 362
347 349 348 349 350 351 351 350 352 353 353 354 355 358 359 360 360 362 362 362 361 359 357 360 361 359 357 354 355 354 353 354 351 351 351 352 354 356 358 358 357 357 357 359 360 361 362 365 364 360 363 364 366 366 364 363 364 366 366 364 365 364 364 364 363 363 362 361 360 362 360 361 361 360 362 361 360 359 358 358 358 360 362 360 364
346 348 349 349 349 351 353 354 355 355 355 355 356 356 357 358 361 361 362 363 364 363 362 359 361 361 361 356 354 354 353 353 352 350 350 350 352 354 357 358 356 356 355 358 360 359 359 365 361 362 366 365 365 366 364 362 363 365 366 365 364 365 364 364 363 365 364 364 363 362 361 362 361 358 357 356 359 360 361 361 360 360 361 361 361
345 346 347 347 349 349 350 351 354 357 356 355 355 356 357 359 361 362 363 365 364 365 362 361 363 362 361 360 357 355 354 353 352 352 350 350 351 351 355 356 356 358 355 355 356 355 358 363 364 363 364 364 365 366 365 366 364 364 363 364 365 365 363 365 363 362 362 362 360 360 358 359 359 358 358 358 363 362 362 359 358 360 361 361 361
341 342 342 345 346 347 346 345 346 354 356 354 354 357 357 358 359 362 364 365 365 365 364 363 363 363 361 360 357 356 356 354 353 353 352 352 351 350 351 353 354 354 355 352 354 356 357 360 364 362 361 364 365 365 367 367 365 365 363 363 361 363 364 361 364 363 362 362 362 359 361 360 359 359 356 356 357 357 357 358 361 360 360 358 358
344 342 343 342 345 347 347 344 346 347 351 349 348 349 351 353 357 360 360 361 365 365 365 364 363 362 362 359 357 355 355 358 358 359 356 353 352 352 352 354 354 354 354 353 352 353 355 359 361 361 362 364 365 365 366 369 365 364 363 364 364 363 362 363 361 360 358 359 358 357 355 357 357 359 359 358 359 355 357 356 357 359 361 359 357
344 342 342 341 345 346 348 348 348 349 349 350 350 349 349 350 350 351 353 357 360 361 364 364 364 363 362 363 361 361 359 360 362 363 362 358 356 354 353 354 356 356 354 354 354 353 354 355 358 358 358 358 359 359 361 362 363 364 364 361 362 361 360 360 360 360 361 358 356 355 353 352 357 362 360 362 367 368 358 359 360 361 361 358 357
340 342 343 345 346 346 348 347 348 348 349 350 349 349 351 350 351 354 355 356 356 357 356 357 358 360 363 365 366 366 365 365 362 362 365 365 361 360 356 355 355 356 357 358 358 356 354 353 355 358 357 354 354 356 362 363 362 362 360 359 358 359 361 360 361 358 358 357 357 357 354 356 363 361 363 366 367 365 364 358 358 360 360 361 360
338 340 342 343 346 348 349 350 350 349 349 349 349 349 350 351 353 354 355 357 357 355 355 355 355 357 360 362 361 361 362 360 362 366 367 367 363 362 360 360 357 357 358 362 359 357 355 354 351 352 355 353 352 353 352 344 348 354 363 361 359 358 359 360 357 361 360 358 356 356 358 357 369 367 365 371 368 364 364 361 358 359 365 365 357
336 337 339 340 341 342 343 343 346 348 350 350 351 351 350 350 351 352 354 357 357 355 354 354 354 356 356 356 356 356 355 355 357 357 360 362 365 366 364 363 360 357 359 355 354 354 357 354 354 354 354 353 353 355 337 340 344 345 358 358 353 354 354 355 358 357 356 356 355 353 353 352 353 359 361 370 368 364 359 359 359 359 359 358 359
336 337 338 338 339 341 342 342 343 343 344 347 349 349 349 350 351 353 355 354 354 354 352 352 354 354 355 355 356 355 354 354 354 355 356 357 357 360 363 360 359 360 359 359 359 354 354 353 352 352 350 350 349 340 335 338 340 340 343 358 351 350 348 349 352 357 357 359 360 357 356 354 351 355 354 357 366 370 362 356 358 359 361 356 346
336 336 336 336 335 335 336 338 339 341 343 345 346 346 346 347 348 350 351 352 352 350 350 351 354 355 356 354 354 352 353 354 356 356 357 357 357 357 360 362 361 361 351 349 353 356 355 359 354 353 357 351 352 339 335 335 336 336 338 348 355 352 351 349 351 350 351 356 360 359 358 357 357 359 361 355 356 359 362 371 371 369 367 367 358
333 334 334 334 334 333 335 336 337 339 340 341 342 342 343 344 346 346 347 348 349 349 349 349 350 352 353 354 351 348 347 351 352 351 350 350 350 357 361 360 362 355 351 351 351 353 353 356 355 354 353 350 349 334 332 332 332 332 334 347 356 352 352 351 351 353 355 354 357 356 358 358 362 362 361 362 360 360 364 363 364 361 361 364 368
332 333 334 334 334 334 333 334 337 337 337 338 338 340 340 340 342 342 343 343 344 343 343 344 343 344 346 347 348 349 348 348 348 348 348 348 349 359 361 363 358 356 355 357 356 346 342 348 355 356 353 352 344 324 329 330 328 330 336 353 355 356 355 355 354 353 354 359 358 358 359 358 359 363 364 364 368 371 364 361 360 359 360 357 354
332 332 332 334 334 334 334 336 337 335 335 335 337 338 338 338 338 338 338 337 338 338 340 341 342 344 345 346 347 347 343 344 345 347 344 344 349 357 358 360 355 352 351 351 350 348 350 348 347 351 354 355 348 329 322 322 324 325 339 356 356 355 355 355 354 356 356 356 356 359 362 358 359 367 343 334 344 363 365 362 362 360 357 354 349
329 330 331 332 332 333 335 335 334 334 335 335 336 336 336 335 336 337 335 333 333 334 336 338 339 341 344 344 345 345 345 346 346 345 346 348 348 350 352 357 354 351 350 351 353 352 352 352 349 349 350 350 347 330 318 318 321 323 335 356 358 357 356 355 353 356 355 356 359 361 362 363 366 358 331 331 335 360 363 362 360 359 358 357 355
326 325 325 326 327 329 330 331 330 329 333 333 334 335 335 333 335 335 335 334 334 333 333 335 336 339 342 344 344 344 343 342 342 344 346 346 348 350 351 355 356 354 353 354 354 351 354 352 352 350 349 347 344 335 318 317 318 321 340 359 360 359 356 352 349 348 350 352 354 359 362 359 360 344 321 325 330 356 358 357 357 357 355 354 356
324 326 326 326 326 324 323 324 325 326 327 329 330 330 331 331 331 333 331 330 332 334 335 335 337 338 339 340 341 343 343 344 343 342 343 345 346 348 349 350 349 348 347 346 349 351 351 349 348 347 344 344 342 337 329 314 316 319 323 350 361 359 353 352 352 351 349 353 350 349 351 327 321 320 318 318 322 326 352 358 358 356 355 352 357
319 320 323 320 319 318 318 319 321 324 326 327 328 327 326 327 328 329 329 330 334 335 336 336 336 336 336 337 337 339 339 341 343 343 344 345 347 348 348 346 345 346 346 345 347 345 344 343 344 346 345 344 342 340 332 315 313 315 319 332 359 355 355 352 350 349 347 346 349 350 353 332 321 318 316 313 316 319 330 351 356 358 355 343 341
320 322 321 320 320 320 321 320 321 321 322 324 327 327 327 326 325 324 327 330 332 334 335 334 336 336 337 337 337 338 339 340 342 344 344 343 344 346 348 347 345 346 346 346 345 345 344 343 343 345 345 343 343 342 340 323 316 313 315 320 343 345 340 348 343 343 347 349 345 348 351 333 317 317 314 311 310 313 322 345 359 330 321 326 346
320 320 320 318 316 317 318 321 322 323 324 324 325 325 325 325 324 325 325 327 329 330 330 331 333 334 336 337 337 338 337 338 338 340 341 342 345 346 346 347 347 346 345 345 345 345 344 344 345 346 345 342 341 341 337 339 322 315 313 316 317 332 324 350 347 347 350 350 346 349 350 335 317 313 310 311 311 312 323 340 325 321 322 324 337
322 321 321 321 319 319 320 321 321 322 323 324 324 324 325 325 324 326 327 328 328 329 330 329 328 329 332 334 336 337 338 337 338 339 339 339 341 343 343 344 344 343 343 342 342 342 342 341 342 343 342 342 340 339 336 337 333 320 318 315 318 318 320 336 342 347 350 348 348 349 342 316 309 306 307 311 314 321 334 320 315 318 321 330 343
318 318 319 320 322 322 320 321 321 322 324 325 324 323 324 324 327 329 328 328 328 329 327 326 327 327 327 327 330 334 336 337 337 337 337 337 338 340 338 340 341 340 340 340 341 342 342 342 341 342 342 341 340 340 339 338 334 329 321 320 321 319 324 320 344 345 348 346 333 317 313 313 316 313 311 311 318 323 316 314 315 318 335 346 348
314 316 318 318 319 319 318 319 320 322 322 325 323 322 321 323 326 327 330 329 328 327 327 327 326 325 326 326 327 327 328 332 335 336 336 336 336 336 336 337 337 337 339 337 338 337 338 340 340 340 339 339 340 340 340 340 339 340 333 322 323 325 341 342 342 339 337 327 320 317 315 313 317 323 341 349 348 345 331 325 323 328 345 347 349
316 318 320 319 318 316 316 318 317 321 323 323 322 322 324 325 325 324 325 328 329 328 327 327 327 326 325 325 323 325 325 325 327 329 333 334 334 333 336 336 335 334 335 334 335 336 334 333 336 337 337 339 339 339 337 336 336 334 334 338 348 349 344 340 345 343 342 344 344 335 336 330 329 328 329 332 336 341 347 346 344 345 348 351 346
321 321 321 320 319 318 318 317 317 320 321 322 321 321 322 323 323 323 324 325 324 325 325 325 324 324 324 325 323 322 326 325 323 326 325 327 329 332 331 329 328 328 329 330 331 332 331 332 331 332 335 337 337 332 328 328 329 329 330 333 334 336 337 334 336 333 332 337 338 340 335 340 342 342 343 344 344 345 347 343 341 342 343 343 347
322 322 322 320 320 320 319 316 316 318 318 318 320 321 322 322 323 324 325 324 324 325 325 326 326 326 324 326 327 325 324 326 327 328 324 323 321 324 329 328 323 324 323 323 328 330 331 331 333 333 333 334 333 326 321 308 315 305 313 321 329 331 329 333 325 309 324 335 337 337 343 340 339 335 336 336 334 334 337 335 335 339 336 336 341
323 323 323 322 321 321 320 320 319 318 316 315 316 318 320 321 324 324 324 323 323 324 325 323 324 322 323 325 326 325 323 324 325 326 328 323 319 310 317 324 323 319 307 303 308 322 323 328 331 332 329 327 324 319 304 298 297 297 297 297 298 296 297 308 309 305 315 330 334 337 334 334 335 333 332 332 331 331 333 331 332 330 332 335 334
320 319 319 320 319 320 320 320 320 318 317 317 316 316 316 317 320 322 322 323 322 323 323 321 322 319 318 323 323 323 326 325 325 324 326 326 324 322 302 304 316 317 305 295 295 297 301 307 321 328 320 308 308 302 297 296 296 296 295 294 294 294 295 295 297 316 334 336 336 336 334 334 333 333 332 331 331 331 331 330 331 331 332 332 332
Wind_Speed
14 14 14 13 14 12 11 11 11 10 10 11 10 9 9 8 9 8 8 8 8 7 7 6 6 6 6 6 6 6 4 5 5 5 5 7 8 8 6 6 5 4 4 3 3 2 2 4 4 3 5 3 1 4 6 1 2 1 1 1 1 1 2 3 2 3 3 3 2 3 3 4 5 3 5 6 5 5 3 2 2 3 4 2 1
15 13 15 14 13 14 12 11 12 12 10 12 10 10 10 10 9 9 8 8 8 7 6 6 6 5 6 5 6 6 5 5 5 5 5 8 7 6 6 6 6 5 4 4 4 3 3 4 3 2 2 4 2 1 2 1 1 2 2 5 1 1 1 4 3 2 5 4 5 4 4 3 3 5 5 5 5 3 4 1 2 4 6 6 6
14 14 14 14 15 15 12 11 12 12 11 12 11 11 10 9 9 9 8 8 7 7 6 5 5 5 5 5 5 6 5 6 6 5 7 7 7 7 5 6 5 5 5 4 4 5 4 4 4 4 3 3 2 2 1 1 1 0 2 4 4 2 0 1 3 3 3 1 2 2 4 5 3 5 3 1 4 5 4 6 5 6 4 4 4
15 16 16 14 14 14 13 12 12 12 11 11 12 11 10 8 9 9 9 8 7 7 6 6 5 4 1 4 2 4 6 3 6 5 6 8 8 7 6 6 6 6 6 6 5 4 4 4 5 5 3 2 2 2 1 2 1 0 3 2 4 6 2 4 1 3 6 3 4 2 4 2 4 3 4 5 2 1 5 6 4 4 5 4 3
15 16 15 15 15 14 13 12 13 12 12 12 12 12 9 11 10 10 8 8 8 8 7 7 7 5 4 3 4 4 6 5 5 5 6 7 8 7 7 7 6 6 6 6 5 4 4 3 2 4 4 4 3 2 4 3 3 3 2 1 3 2 2 3 1 3 2 4 3 2 2 2 3 3 4 4 4 5 5 4 4 3 7 2 3
15 16 16 15 15 14 14 14 13 13 13 12 12 12 10 11 11 10 8 8 8 10 8 7 7 7 6 6 6 6 6 7 7 7 7 8 8 8 9 8 7 6 6 5 5 5 4 3 2 3 5 3 2 3 2 1 1 3 4 3 3 1 1 3 5 1 4 1 3 2 4 2 1 4 4 3 4 2 3 2 5 5 6 4 2
14 14 15 15 15 15 15 14 14 13 13 12 12 12 11 11 11 10 9 8 8 10 9 7 8 7 8 7 7 7 7 6 5 6 7 5 5 8 7 7 6 6 7 6 5 5 5 4 3 2 4 4 3 3 3 1 3 3 2 2 1 4 3 2 2 4 1 3 3 2 1 4 1 1 1 3 2 3 5 5 6 2 5 8 7
15 16 16 16 15 15 15 15 13 13 13 12 12 12 12 11 12 11 9 8 8 9 10 8 8 7 8 7 7 7 7 6 7 1 4 7 7 7 7 6 6 5 6 5 6 5 5 5 3 4 3 2 3 1 2 5 6 1 2 1 0 1 1 2 2 6 4 1 4 4 2 2 4 2 3 2 1 2 3 2 3 6 5 3 2
15 15 16 16 17 16 15 14 14 14 13 12 11 11 12 11 11 11 10 9 8 11 10 9 7 7 7 7 7 5 5 6 6 8 6 5 6 6 6 7 6 4 6 6 6 6 5 5 4 4 4 3 2 4 5 4 2 2 2 2 3 2 2 2 2 1 3 2 3 3 5 3 3 1 3 3 3 2 3 1 1 3 1 2 4
15 16 16 16 16 16 15 14 14 12 11 12 12 12 12 12 12 12 11 8 9 11 10 10 9 7 7 7 7 6 5 6 6 6 5 5 6 6 4 6 6 6 6 6 6 6 5 4 5 5 4 4 3 5 2 1 2 2 3 3 1 0 0 2 2 1 3 2 0 1 2 3 3 3 2 2 1 3 4 3 5 4 3 1 2
14 15 15 16 16 16 16 16 14 13 11 12 12 12 13 12 12 12 11 9 10 10 10 11 9 8 7 7 8 7 7 7 6 6 5 6 6 7 6 5 5 6 6 6 7 6 6 5 5 5 3 3 3 2 3 3 4 4 4 2 2 2 2 1 2 2 3 1 4 1 4 5 4 2 2 4 3 3 3 5 5 2 5 3 3
15 15 15 16 16 16 16 15 15 13 13 12 11 12 12 12 12 12 11 10 10 10 10 10 9 9 8 8 8 7 7 6 6 7 7 7 6 6 5 5 4 5 5 6 7 7 6 5 5 3 4 3 3 3 3 1 4 3 2 1 3 2 1 2 3 3 4 3 5 3 4 5 1 5 3 4 3 4 4 3 5 2 4 5 2
15 14 15 15 15 16 16 15 14 14 12 13 12 12 12 12 14 13 12 11 10 10 10 10 9 9 8 8 8 6 7 6 6 7 7 6 6 6 5 5 5 5 5 5 5 7 6 5 5 3 3 3 1 2 2 1 2 6 2 3 2 1 2 3 3 5 4 4 3 4 3 4 3 2 4 4 1 1 3 4 6 4 3 5 4
13 16 15 15 15 15 14 14 14 13 14 13 12 11 11 11 13 13 13 11 10 10 10 10 9 9 8 8 8 7 7 6 5 6 6 5 5 5 6 6 6 6 6 5 5 7 6 6 5 4 3 3 3 3 1 1 2 1 3 2 1 2 1 4 4 5 4 4 5 4 4 4 4 3 3 2 6 4 4 5 4 5 7 6 5
6 13 15 16 15 15 14 14 14 14 14 14 12 11 11 11 12 13 13 12 11 10 9 10 9 9 8 8 8 8 7 7 6 5 6 6 5 6 5 5 6 4 5 5 5 4 6 5 6 5 5 4 4 4 4 2 1 3 3 1 2 2 4 4 5 5 5 4 4 4 5 5 4 4 4 5 3 4 4 2 3 4 5 6 7
7 7 14 16 16 15 14 14 14 14 14 13 13 12 11 11 12 13 13 13 12 11 10 10 9 9 9 9 9 8 7 7 6 5 4 6 6 5 5 4 2 5 5 6 6 5 5 6 6 6 6 6 5 5 4 4 4 3 1 2 3 1 5 4 5 6 5 5 5 4 3 5 4 4 6 5 4 4 5 6 3 4 4 5 6
11 6 9 12 14 15 14 15 14 14 14 13 12 12 12 12 13 13 13 13 12 12 10 10 9 9 10 10 9 9 9 9 8 7 8 6 5 5 5 6 6 5 6 6 7 7 6 6 6 7 6 5 6 5 5 4 4 3 3 3 4 2 1 3 6 6 5 5 4 5 4 4 4 3 4 5 3 2 4 4 3 4 3 3 4
14 9 7 8 11 12 13 14 15 14 15 14 13 12 12 12 13 14 14 14 13 13 12 11 10 10 10 10 10 9 9 9 8 10 9 8 7 5 6 7 6 6 6 7 8 8 7 7 6 6 7 7 6 7 7 6 6 4 4 3 3 3 1 3 6 6 5 4 5 4 3 3 4 4 5 5 3 1 3 5 4 2 0 3 3
15 14 12 11 11 13 13 14 14 14 14 14 13 12 13 13 13 14 15 14 14 13 12 10 11 9 9 10 11 10 9 8 8 7 8 8 8 7 7 2 2 4 7 3 5 7 7 7 7 7 6 7 6 6 6 6 6 6 5 5 5 6 5 5 7 5 5 4 3 4 3 4 4 5 5 5 4 2 3 4 3 3 4 3 4
17 15 13 14 15 15 16 15 15 15 14 13 13 11 13 13 13 12 12 12 13 13 12 12 12 10 9 9 10 9 9 8 8 8 8 8 8 10 9 6 5 6 7 7 6 6 7 8 8 8 8 8 8 7 7 7 6 6 6 6 6 8 6 6 6 6 5 4 3 4 4 4 4 4 5 5 4 4 4 5 4 4 3 3 3
15 14 13 10 9 13 13 12 13 12 11 10 11 10 8 7 9 11 11 11 12 11 11 11 10 10 10 11 11 10 11 10 10 9 9 8 8 8 9 9 6 10 8 8 8 7 8 8 8 8 8 6 7 7 7 7 6 6 6 5 6 6 6 6 6 6 5 4 4 4 5 4 4 5 5 5 5 5 4 4 4 5 4 4 4
12 11 14 13 13 10 10 8 9 11 12 12 9 12 12 14 11 11 10 10 10 10 10 10 10 10 11 11 11 11 10 10 11 11 11 9 9 9 7 4 6 8 5 3 7 8 8 8 9 8 6 8 7 7 7 7 7 7 7 8 8 7 7 7 5 5 5 5 4 5 5 6 6 6 6 6 5 6 6 6 4 2 5 4 2
14 12 13 11 13 11 11 10 9 9 8 9 10 9 8 9 8 10 11 11 11 10 8 8 8 9 10 11 10 11 10 12 12 11 12 11 10 11 10 10 10 11 9 9 6 8 8 8 8 6 10 8 7 8 8 7 7 8 8 7 7 8 7 7 7 6 6 6 6 5 6 6 5 6 6 6 6 5 5 3 6 1 4 4 4
10 11 11 9 11 12 12 12 10 9 8 8 7 7 7 7 8 8 9 10 10 9 8 8 8 9 10 10 10 9 11 12 12 11 12 12 11 11 11 11 12 10 10 10 9 4 9 8 7 5 8 8 8 8 8 8 8 8 8 8 7 5 6 6 7 7 6 6 6 6 6 5 5 5 4 5 5 5 4 5 5 4 4 5 5
9 13 12 13 11 10 10 9 9 7 6 7 7 7 6 7 8 8 8 9 8 8 8 10 9 9 9 9 10 10 11 11 12 11 13 13 12 11 9 9 10 11 10 8 8 10 9 8 9 10 9 9 9 9 9 9 9 8 8 8 7 7 6 6 7 6 6 6 6 6 6 6 5 5 5 6 5 5 6 4 4 4 4 4 4
10 8 9 12 12 10 9 9 5 5 7 7 6 7 6 7 7 7 7 8 8 7 8 9 9 10 9 10 10 10 11 11 11 11 12 12 12 12 8 6 6 10 9 12 13 11 11 10 9 8 10 9 9 9 9 9 9 9 8 8 8 8 8 7 7 7 8 7 7 7 6 7 6 6 6 5 5 4 4 5 6 5 4 4 5
12 9 8 7 12 13 12 12 10 6 5 4 6 6 5 5 7 7 6 7 8 8 8 9 9 10 10 11 12 10 10 10 11 11 10 11 11 12 12 13 13 15 12 11 9 9 9 10 10 11 10 10 10 9 8 9 9 8 8 8 8 8 7 7 8 8 8 8 8 7 7 7 7 6 7 6 6 7 6 6 5 5 5 5 5
10 10 11 11 12 12 14 14 12 9 6 5 4 3 2 3 3 3 6 7 5 6 8 8 8 9 10 11 12 12 11 10 9 8 9 10 10 11 11 11 11 11 11 12 12 13 10 10 12 10 10 9 10 10 10 9 9 9 9 8 7 7 8 8 8 8 9 8 8 9 9 8 8 8 7 6 6 6 5 6 5 4 4 4 6
7 10 9 7 7 11 13 13 13 12 10 9 7 6 5 5 5 5 4 5 5 6 7 8 8 8 9 9 9 9 9 9 8 7 8 9 9 9 10 10 10 10 10 11 11 10 12 11 8 12 12 11 10 10 9 9 9 9 8 9 7 8 8 8 8 7 7 8 9 8 9 10 8 11 8 1 5 5 5 5 4 5 5 6 6
8 8 7 8 9 9 9 11 11 12 11 9 8 8 7 8 8 7 7 6 5 6 8 7 8 8 7 5 4 3 4 6 8 9 8 8 9 9 10 10 11 11 10 9 9 10 9 10 12 9 10 11 10 8 8 8 9 8 9 7 7 8 6 7 7 8 8 8 8 8 8 4 7 6 6 4 5 7 6 7 6 5 6 6 6
10 9 9 7 6 6 7 7 7 9 11 11 10 9 8 8 7 8 7 6 6 7 8 9 9 8 7 5 5 5 5 4 4 4 5 7 9 9 9 9 10 10 10 8 8 11 10 5 8 11 10 9 10 7 10 12 14 6 6 7 6 6 5 8 9 6 7 8 8 9 8 6 9 9 8 10 10 9 10 10 11 10 7 7 7
10 9 9 8 8 8 9 7 5 7 8 8 8 9 9 9 9 9 8 7 8 9 10 10 10 8 7 7 7 6 5 6 5 7 6 6 5 6 8 8 9 10 7 8 8 8 8 11 9 6 10 12 10 8 14 15 15 12 9 7 8 8 9 9 8 9 9 9 9 9 9 8 8 8 8 9 10 11 12 12 11 10 11 12 10
8 9 8 8 9 8 7 7 6 6 5 3 3 4 3 4 7 8 7 8 8 9 10 11 10 9 9 9 8 8 8 8 8 8 9 8 8 8 8 8 9 9 8 8 9 9 10 11 11 11 10 9 10 11 16 16 14 13 10 8 9 9 9 9 8 8 8 8 7 7 7 7 7 7 6 7 7 9 12 14 13 11 11 12 13
9 9 9 8 8 8 8 8 8 8 7 6 6 5 5 5 5 3 4 6 6 8 9 8 7 7 7 7 7 8 8 8 8 8 8 8 10 11 9 8 6 2 5 8 12 11 9 9 10 10 9 8 6 11 14 14 13 11 9 6 9 10 10 9 9 9 9 9 8 7 7 8 8 7 7 8 8 8 7 8 8 8 9 12 14
10 9 9 10 11 10 9 9 8 7 6 6 6 5 6 6 5 5 4 4 4 5 4 3 3 2 2 3 5 5 8 5 4 4 4 5 11 10 8 7 2 1 3 5 9 12 11 10 11 10 10 9 5 11 11 11 10 10 7 5 7 9 9 9 9 9 9 10 8 7 8 8 7 7 8 7 8 8 8 8 9 10 10 11 10
9 10 9 10 10 10 10 10 9 9 8 8 7 7 7 6 4 5 5 6 6 6 5 4 5 5 4 2 2 5 1 1 0 2 5 10 12 9 6 5 2 3 6 6 5 3 6 14 10 10 9 9 7 11 8 4 7 8 7 5 7 8 9 10 9 9 9 8 9 9 7 9 8 8 4 2 3 5 7 8 10 10 10 11 12
10 10 11 10 10 10 10 9 9 9 9 9 8 8 8 8 8 8 8 7 7 7 6 6 6 4 3 2 2 3 1 2 2 1 2 5 7 6 5 4 4 6 9 8 5 4 4 2 11 14 11 4 8 10 10 8 3 4 4 5 7 8 9 10 11 10 9 9 10 9 7 7 9 2 9 10 11 5 6 8 9 11 12 13 13
11 9 9 10 10 9 9 10 12 10 9 9 8 9 9 9 8 8 9 9 8 8 7 6 5 4 4 4 5 4 4 6 6 6 3 4 2 2 4 4 7 7 6 6 6 5 3 1 0 4 11 9 7 9 11 9 8 7 8 6 6 8 10 9 9 10 10 10 9 13 8 7 2 6 7 9 8 3 4 7 9 10 11 10 10
11 11 11 10 9 9 9 10 10 11 9 10 8 7 8 8 8 8 8 8 8 9 8 7 6 5 4 4 4 5 6 6 5 5 4 3 1 2 4 3 2 2 2 4 6 6 5 1 1 4 8 2 4 9 12 12 12 10 7 4 5 5 4 3 3 6 10 11 11 14 17 9 6 6 6 5 3 3 4 6 8 8 9 9 7
11 12 11 10 9 10 10 11 11 9 9 9 9 8 8 7 7 8 8 8 8 8 7 7 6 6 5 5 6 6 5 4 5 4 3 3 3 2 2 3 4 4 2 4 3 3 5 5 5 7 7 6 5 5 7 10 10 11 11 7 4 2 3 4 4 5 6 5 4 4 3 11 12 9 8 6 7 8 4 5 7 6 8 8 6
12 11 10 10 10 10 10 11 10 10 9 9 8 8 9 8 8 8 9 8 7 6 7 7 6 6 6 5 6 6 6 5 5 4 2 2 1 2 3 5 5 5 3 1 4 6 5 4 6 7 6 3 2 4 6 10 10 10 12 11 3 3 4 4 5 6 5 6 3 4 3 6 5 6 6 6 4 5 4 5 5 7 5 5 8
11 11 10 9 9 9 9 10 9 9 8 7 8 8 8 8 8 9 8 7 7 7 7 7 7 6 6 6 6 6 6 6 5 5 4 3 2 1 4 4 3 4 7 6 6 4 3 4 2 4 7 6 5 6 4 7 10 10 10 12 7 5 4 1 4 5 6 2 4 6 3 3 3 3 4 4 6 4 4 4 4 4 8 8 6
9 8 8 9 9 9 10 10 8 8 8 8 9 8 7 7 8 8 7 7 7 7 7 7 6 6 5 6 5 6 5 5 5 6 6 5 4 6 5 3 4 6 7 7 7 7 6 5 5 6 6 6 5 4 6 6 8 9 8 6 6 5 9 5 2 3 1 2 4 7 3 2 6 5 5 5 5 7 8 6 6 7 8 7 6
11 15 17 11 8 8 8 8 8 8 8 8 8 7 6 7 8 7 7 6 6 5 5 5 4 4 4 4 4 5 5 4 5 5 6 5 5 6 6 6 5 5 5 5 5 5 6 6 7 8 7 7 5 5 5 7 6 4 3 3 4 4 4 3 3 2 2 2 1 2 3 3 7 7 8 8 7 6 6 9 9 10 9 6 5
8 10 12 13 14 10 8 8 8 8 7 7 6 7 7 7 6 5 5 6 5 5 5 4 4 3 3 3 3 3 4 4 3 4 4 5 5 4 5 5 5 5 5 5 4 5 5 6 5 6 6 5 5 5 5 4 4 4 3 3 4 4 5 4 4 3 4 4 3 5 7 8 7 8 10 9 8 9 12 12 14 14 9 5 6
9 8 8 6 7 10 12 10 10 9 7 6 6 6 6 5 5 6 6 5 4 4 4 4 4 3 3 2 2 4 5 4 4 3 4 3 4 4 4 3 4 4 3 3 3 4 4 4 4 4 4 4 4 4 5 4 1 1 4 7 4 3 2 2 3 4 5 6 7 8 9 9 9 9 7 5 5 4 8 13 14 10 5 7 6
9 8 7 5 6 5 4 5 8 8 7 6 5 4 3 4 6 7 7 5 4 2 3 3 3 4 4 3 6 6 4 4 4 3 4 3 2 2 2 2 1 2 3 2 3 2 3 3 3 3 2 3 3 2 4 4 5 5 6 5 2 3 5 5 4 0 2 3 5 6 6 8 9 9 9 9 7 8 6 7 8 8 7 7 4
8 7 5 4 4 5 5 6 6 6 8 8 6 6 6 7 7 7 4 4 4 6 4 4 5 5 4 4 4 4 4 4 4 5 6 5 4 4 4 5 7 7 6 2 2 3 1 1 0 1 2 2 3 8 7 6 5 6 6 6 6 7 7 7 6 7 7 7 8 6 9 8 7 7 7 8 7 6 7 4 5 6 6 6 5
7 6 6 5 5 5 6 6 5 5 7 7 7 6 5 5 5 4 2 3 3 2 3 2 2 3 3 2 2 3 4 4 4 5 6 6 7 7 5 6 8 7 6 7 8 5 5 5 4 4 3 3 6 6 4 4 4 4 4 5 6 6 6 6 6 8 7 8 8 8 8 7 5 2 2 3 2 2 3 3 4 4 6 5 5
6 5 4 4 4 4 5 5 5 5 4 2 3 5 7 6 4 4 4 4 2 1 1 3 4 5 5 5 4 5 5 5 5 4 6 6 9 10 9 6 6 7 8 9 8 6 5 5 6 6 6 4 5 4 1 3 6 5 5 7 8 8 8 7 9 12 6 5 7 7 5 3 2 3 3 2 3 3 4 4 4 2 3 4 5
7 7 6 5 5 5 5 5 5 4 4 3 3 3 4 5 6 5 5 3 1 1 3 4 5 6 6 7 5 5 4 4 5 5 4 3 5 5 10 12 9 7 7 8 9 7 8 8 7 4 8 12 9 7 10 8 6 4 3 4 4 6 6 6 6 6 5 5 6 6 4 2 3 3 2 1 3 3 3 4 5 6 5 4 4
Wind_Direction
169 178 168 173 162 170 158 170 162 166 163 145 160 158 153 158 146 155 157 147 154 156 167 165 158 163 153 166 154 153 153 145 163 150 155 134 143 148 155 153 151 160 163 170 168 155 136 118 130 146 127 135 125 236 182 189 38 356 108 330 302 253 227 180 117 312 83 119 218 123 128 182 141 210 229 206 189 197 124 197 30 133 117 125 9
167 175 171 173 166 168 159 172 165 162 165 154 168 163 163 161 154 158 160 158 162 163 163 168 157 169 164 173 160 146 149 173 156 169 150 123 142 142 173 141 157 162 166 175 162 165 154 139 136 138 152 145 189 300 53 223 327 340 49 347 285 314 325 338 58 336 218 152 169 164 144 147 120 203 186 198 199 157 146 189 165 227 145 149 130
169 174 175 174 169 167 160 174 165 162 166 163 170 163 169 161 157 162 160 164 169 158 166 161 166 159 185 158 184 139 161 174 154 158 141 143 152 159 157 141 163 164 164 175 175 181 163 155 154 157 184 142 189 205 200 191 255 326 64 170 331 285 101 60 145 293 263 84 64 186 149 147 184 230 222 109 230 143 192 160 193 151 92 92 143
177 174 175 178 168 170 164 171 168 162 171 168 173 166 172 161 160 165 161 167 165 154 170 156 151 142 51 149 46 149 154 131 124 142 142 143 153 155 151 162 174 166 171 179 174 179 168 165 182 149 160 171 154 226 206 242 146 177 74 307 73 310 184 128 181 16 352 118 193 201 171 116 144 205 174 169 142 247 205 135 209 116 121 127 189
178 176 174 176 173 174 169 170 173 168 175 169 177 170 176 166 162 167 163 164 162 155 161 147 144 154 146 122 105 84 126 141 155 160 151 153 154 161 156 167 180 170 167 182 173 158 178 199 169 156 168 182 200 183 232 193 156 183 112 254 191 287 340 113 66 124 86 350 357 283 102 206 47 160 122 12 267 164 196 119 12 204 127 169 274
183 178 176 176 175 174 173 177 178 174 177 170 182 169 174 163 163 168 164 162 163 158 158 155 159 159 157 165 159 161 154 171 176 166 159 164 169 158 151 172 178 167 168 181 162 164 171 186 203 180 176 193 161 291 241 83 155 268 160 339 16 107 310 292 136 32 105 72 136 116 129 307 164 6 317 141 289 68 94 84 177 224 116 157 218
189 182 179 177 176 175 177 180 181 177 176 172 180 167 170 162 162 170 163 165 161 159 162 164 164 167 168 172 168 176 171 166 172 157 167 154 181 147 149 166 178 173 166 180 156 166 173 174 200 224 237 170 197 187 217 232 342 263 66 127 324 18 311 323 314 136 54 214 161 167 91 303 291 95 241 163 187 340 309 178 177 165 188 176 187
185 184 180 181 179 178 181 179 185 176 176 175 179 168 164 165 164 169 166 166 162 159 167 170 167 172 175 178 175 177 168 158 113 95 235 153 135 147 153 156 172 184 161 164 171 164 184 181 198 233 252 228 180 304 227 135 215 230 146 62 84 243 15 319 0 331 166 207 35 321 161 31 317 324 319 22 135 204 216 228 162 187 208 99 230
187 184 183 186 182 182 182 182 185 182 176 176 179 165 162 166 166 169 165 167 161 161 169 170 174 170 177 180 166 182 149 153 151 158 153 133 148 147 161 147 168 168 161 166 180 173 181 191 186 212 220 231 169 199 247 186 194 148 189 181 196 199 251 53 329 343 329 67 131 318 340 288 239 197 165 266 309 29 250 173 350 19 295 173 15
189 189 184 185 181 180 181 181 183 183 174 171 173 167 164 165 168 171 166 173 163 165 170 169 173 169 181 173 170 169 154 164 168 137 144 146 146 148 149 158 169 169 163 175 172 179 186 184 198 197 209 224 179 245 181 105 193 179 215 228 84 222 26 239 215 211 288 348 349 166 283 299 319 289 277 246 167 179 257 211 201 190 214 342 210
191 188 185 183 180 180 179 181 181 179 178 172 174 169 166 166 169 173 170 173 166 170 173 172 173 174 183 173 169 174 164 162 161 155 153 164 161 167 163 173 182 173 178 170 179 191 185 194 206 197 236 193 250 254 227 236 191 200 194 138 230 242 229 285 250 240 241 247 260 222 245 228 206 270 302 339 335 254 286 317 294 114 326 112 215
190 189 184 183 178 183 181 181 179 180 181 178 177 168 169 165 167 173 171 176 171 173 178 176 178 176 180 179 174 172 174 167 170 170 169 170 176 167 168 178 197 172 194 169 186 195 180 196 221 202 190 234 195 240 246 248 301 174 154 152 206 217 276 268 300 316 292 200 261 224 214 258 221 245 232 190 222 309 321 271 274 327 259 278 104
190 189 186 181 181 183 183 179 178 184 182 181 177 171 169 166 168 172 174 177 176 175 180 180 181 177 183 181 177 175 184 166 181 175 174 180 178 168 168 173 184 192 191 159 193 215 165 194 197 194 180 209 302 346 342 63 269 324 90 245 133 229 253 258 240 242 244 297 276 261 255 257 252 253 274 270 309 30 264 261 264 315 299 273 296
194 191 188 183 181 185 181 180 181 183 180 182 183 173 170 167 168 175 174 177 177 182 179 182 182 181 182 185 181 180 182 182 179 181 179 179 179 190 187 185 184 195 200 197 197 187 186 183 184 187 185 176 173 202 296 346 314 354 312 253 277 6 85 257 264 264 266 253 250 280 278 272 265 252 253 262 255 241 240 279 0 311 298 284 256
253 197 189 182 185 184 181 183 181 184 183 181 181 174 172 169 167 174 176 177 179 184 181 181 183 186 179 187 191 181 184 190 190 191 186 184 185 183 209 186 193 188 194 199 205 189 197 167 181 196 178 188 187 197 208 195 260 204 233 303 15 278 280 317 293 266 257 244 261 278 290 285 305 317 301 279 309 287 297 335 348 301 296 308 297
223 215 193 183 184 185 181 183 183 183 182 182 181 176 177 173 169 176 178 177 177 184 185 183 188 185 181 188 192 194 187 191 182 185 194 193 187 181 192 223 193 133 228 184 184 192 198 182 184 198 186 187 194 197 214 188 185 221 227 259 240 119 332 298 261 271 264 263 271 290 303 292 296 303 310 324 333 350 25 321 299 302 306 302 315
191 214 194 184 183 188 184 182 186 180 184 184 179 178 181 175 172 177 178 178 179 184 184 187 187 188 187 189 191 193 195 197 184 189 191 193 185 196 175 214 206 184 197 192 192 190 192 195 199 192 188 201 187 194 195 188 172 206 213 216 252 41 223 293 293 289 296 283 246 221 238 262 280 318 289 293 360 346 298 290 296 287 6 304 304
188 188 204 194 186 191 188 185 183 181 185 182 181 185 181 181 178 179 180 181 183 184 188 186 187 190 190 192 193 197 198 207 195 188 204 185 188 207 203 195 202 200 231 155 217 177 187 202 197 207 192 196 197 196 191 187 194 218 183 193 217 119 278 273 276 270 275 270 280 285 263 256 258 249 245 247 229 235 278 267 280 290 225 282 307
183 188 192 200 195 184 195 189 184 182 187 183 180 189 181 184 189 186 183 185 187 189 189 189 189 195 191 193 195 198 205 205 212 201 201 197 188 192 221 232 275 223 205 236 198 184 190 191 201 203 198 194 198 201 182 188 193 213 167 210 194 194 199 223 233 243 251 262 280 277 286 276 294 303 306 295 303 277 255 272 281 289 297 305 299
177 184 184 190 194 189 191 189 183 187 183 182 182 188 190 186 183 197 186 186 191 191 185 192 192 196 192 191 195 197 203 207 210 207 206 205 200 194 181 217 157 277 236 199 212 212 194 195 196 206 199 200 192 203 192 189 205 212 203 214 193 202 218 225 240 237 239 215 226 247 262 273 282 281 279 283 275 263 276 286 283 296 285 280 295
174 174 175 186 194 182 186 185 182 183 181 181 183 186 192 173 201 196 182 186 195 195 186 195 193 194 194 195 193 197 200 203 206 204 212 209 204 215 190 181 190 214 221 208 203 219 209 203 208 199 208 188 208 205 203 193 201 208 226 212 140 205 213 229 226 241 249 243 238 253 261 260 266 271 274 276 272 268 257 260 282 250 254 274 280
165 173 180 182 180 185 165 170 172 176 179 177 185 163 202 174 188 198 177 186 197 196 194 190 197 194 198 197 196 197 203 203 208 204 209 205 212 196 204 136 213 232 146 280 248 214 211 211 207 195 234 203 195 208 212 201 199 207 212 214 187 189 208 234 234 221 221 247 224 229 244 247 237 247 264 263 261 269 254 258 223 103 14 340 41
164 171 168 171 166 160 152 150 156 164 165 166 169 168 173 168 175 175 178 187 189 196 196 195 198 202 202 202 200 199 200 206 209 210 208 209 207 203 202 196 196 214 177 190 216 239 227 205 221 205 193 217 192 203 221 219 206 205 219 223 217 202 210 218 220 227 230 225 231 229 236 239 238 235 231 243 258 269 289 317 289 331 198 231 180
166 166 167 161 161 166 158 149 152 152 147 150 149 166 165 167 172 172 183 184 191 190 185 209 195 206 207 208 206 207 206 207 212 212 212 212 211 208 204 212 208 198 204 185 194 199 240 204 201 222 220 210 197 209 214 223 212 207 214 227 246 226 210 215 225 229 222 227 229 228 238 241 246 247 253 281 286 280 269 273 279 261 269 275 292
169 175 165 162 159 142 129 119 117 115 126 135 142 157 164 163 173 176 181 186 189 197 189 192 196 203 211 214 208 208 215 216 216 213 213 212 214 217 190 207 223 219 188 179 194 190 230 213 208 204 201 207 209 209 213 215 220 211 218 222 221 223 226 232 234 233 241 239 235 239 232 225 229 236 242 245 239 243 255 268 266 260 252 258 265
144 151 161 179 164 143 123 97 81 99 115 118 115 132 156 163 175 178 175 175 185 189 196 197 196 202 208 215 217 216 217 219 221 223 221 217 211 215 194 196 240 256 206 187 206 207 198 203 215 214 208 207 210 210 213 224 218 214 213 224 216 217 225 226 227 227 229 228 230 230 240 240 237 234 242 242 254 267 271 254 260 276 289 296 283
142 181 160 198 169 159 142 141 161 139 119 91 92 118 125 147 170 176 171 178 184 186 194 203 203 207 206 207 212 217 223 223 220 226 221 223 220 216 196 193 203 219 222 217 181 217 211 209 205 212 208 206 205 209 210 212 226 229 222 218 224 223 221 225 229 230 227 223 231 228 224 235 236 240 246 236 230 230 239 253 255 258 261 262 265
157 166 154 175 171 160 149 154 157 157 158 143 138 121 137 136 160 190 189 188 187 187 192 202 207 212 217 214 216 210 216 222 226 223 232 231 225 219 218 216 214 209 216 226 208 192 203 208 212 215 216 204 203 206 206 208 218 224 222 217 229 237 231 231 226 228 234 233 229 235 235 225 233 233 233 243 248 252 247 258 258 257 264 264 268
133 141 153 176 186 159 157 157 158 159 164 169 163 165 176 197 199 217 236 223 213 210 206 207 208 211 216 222 228 222 214 217 219 219 226 239 234 228 224 217 217 221 209 222 230 222 209 202 188 218 213 209 204 212 204 208 210 217 229 226 229 232 232 238 241 244 238 242 245 244 241 239 230 218 216 254 330 355 319 278 266 268 263 264 266
83 93 131 160 161 159 165 162 166 172 173 172 174 177 176 177 184 190 195 205 217 224 224 223 226 219 218 230 241 279 230 214 211 219 226 228 233 234 225 217 218 217 220 216 221 229 219 213 214 202 219 218 215 208 217 182 195 223 223 234 217 236 243 246 243 246 248 247 246 255 262 268 112 136 125 177 216 247 259 275 286 278 271 273 276
94 86 77 93 114 137 148 157 170 184 185 192 194 194 195 194 188 183 183 183 186 210 219 222 223 224 228 238 256 269 293 308 308 261 225 228 237 240 237 233 226 223 224 220 223 221 225 239 238 220 208 233 224 215 163 171 180 203 242 216 230 233 241 260 246 241 260 261 261 257 257 224 156 171 187 189 202 216 227 234 250 258 268 272 270
105 100 101 102 100 98 95 94 133 166 181 188 201 196 195 200 202 202 196 188 196 205 215 221 223 224 230 241 245 251 261 275 267 274 282 279 280 272 259 246 240 230 226 227 220 231 235 222 224 235 228 226 227 193 166 171 175 180 208 236 242 234 230 231 234 237 236 241 249 253 248 252 241 228 232 197 207 214 222 230 235 242 248 251 252
108 105 99 79 79 84 91 116 120 105 94 101 157 181 167 204 213 210 205 205 206 210 218 225 226 221 217 214 219 221 225 229 240 248 256 261 257 255 259 259 250 243 235 227 228 227 224 229 232 232 237 239 248 169 175 172 171 175 185 221 242 247 247 244 245 240 244 251 251 252 267 270 275 277 248 239 214 215 214 223 227 231 238 242 243
87 97 98 101 93 87 83 77 66 65 83 83 64 76 94 84 76 86 198 198 205 214 221 223 225 226 228 232 231 236 233 228 225 230 239 245 242 238 239 241 252 335 18 339 299 256 229 227 225 233 237 242 272 151 162 165 164 167 169 201 235 250 250 247 249 252 246 238 232 246 256 255 252 256 256 252 249 252 240 214 216 223 233 231 228
102 98 98 99 100 101 105 102 94 101 108 111 108 98 88 88 90 99 105 108 115 112 99 116 136 133 172 185 224 240 247 237 234 238 256 246 246 238 227 227 213 132 239 231 235 269 266 235 221 223 226 229 228 151 158 157 155 158 159 203 240 252 256 253 242 240 246 255 253 243 242 248 247 251 255 260 254 245 241 246 248 246 244 244 234
96 101 103 104 100 96 92 95 103 107 99 94 93 101 104 93 91 84 81 76 79 83 80 70 72 54 70 126 215 244 98 20 355 334 272 241 233 223 203 191 169 214 235 248 289 52 309 290 266 233 224 217 57 28 35 89 139 147 153 200 234 248 259 265 265 252 246 241 243 246 249 249 257 260 302 20 343 296 273 272 268 267 264 264 263
100 100 102 98 99 101 100 99 92 87 83 85 90 91 90 91 86 80 76 70 70 67 66 70 82 106 93 50 60 101 133 126 40 149 287 318 264 221 218 204 196 221 227 243 273 252 241 358 323 306 271 96 63 42 40 38 31 140 188 223 241 248 251 252 255 261 252 247 247 249 249 257 259 39 49 45 23 3 283 286 289 287 284 282 283
100 95 91 92 94 98 101 98 98 91 101 113 114 103 101 95 92 92 84 74 63 64 61 48 54 70 101 118 112 99 99 108 136 121 171 205 212 16 280 227 222 209 232 234 212 239 251 335 120 346 9 28 43 37 32 32 24 358 332 284 264 252 258 271 278 279 274 265 262 257 274 284 10 68 47 60 29 13 274 277 280 286 291 299 303
98 91 83 66 58 72 86 87 86 90 82 71 64 88 104 106 104 93 88 80 72 68 65 67 44 24 60 96 95 90 92 90 90 97 107 98 78 191 202 237 185 171 219 216 209 224 232 148 249 125 117 34 24 48 37 29 12 4 337 301 296 300 323 336 338 313 320 316 326 8 31 52 95 135 126 115 141 240 253 262 271 280 287 290 305
72 72 73 68 58 49 49 52 55 59 74 84 84 71 65 67 77 80 77 71 63 52 67 63 68 66 53 59 73 62 64 87 98 102 90 75 79 64 84 114 101 83 73 46 26 167 144 95 64 96 121 131 99 89 70 54 34 16 356 321 284 295 296 292 290 326 319 323 31 304 319 23 23 26 34 45 42 15 314 285 286 282 282 285 335
51 52 55 60 66 59 41 39 31 27 38 50 58 66 70 62 63 65 63 67 70 70 60 61 55 63 67 61 70 76 75 65 74 88 93 106 107 139 142 120 119 125 123 128 90 62 63 62 58 73 89 79 84 73 56 54 49 34 11 350 278 359 355 11 3 340 338 335 1 318 313 42 21 26 6 8 18 20 353 312 293 286 337 340 315
64 44 41 62 60 58 66 58 36 25 32 54 55 58 58 60 55 52 54 56 56 51 52 56 56 60 61 57 67 68 70 71 74 80 90 100 160 167 123 130 142 147 133 128 98 81 63 77 64 102 108 105 77 72 86 63 58 44 29 10 8 33 16 332 35 310 271 169 43 318 332 11 352 1 353 329 314 293 271 266 289 313 308 322 325
53 65 74 60 54 58 47 36 37 38 26 35 51 56 55 57 57 45 46 48 44 45 49 47 41 46 55 64 60 63 69 85 80 66 59 65 64 73 67 57 84 99 103 109 116 129 130 113 130 113 102 105 100 67 49 61 57 49 28 7 1 358 346 347 106 187 311 94 173 239 205 55 327 310 282 283 271 269 262 256 288 297 283 282 277
40 28 21 41 76 61 54 57 46 41 31 36 40 44 50 56 55 41 36 41 48 52 66 71 56 34 31 45 57 66 68 63 69 78 79 62 62 62 62 68 70 84 92 91 97 105 115 127 126 131 131 122 125 116 88 71 77 60 24 340 330 341 358 4 317 307 292 339 352 333 17 308 279 286 285 277 279 269 277 300 286 267 259 254 262
55 54 60 25 10 20 52 57 54 46 36 36 42 36 37 43 45 59 51 34 28 41 53 66 60 50 47 50 55 62 61 59 60 70 72 78 73 67 68 53 58 61 63 75 85 91 93 92 99 103 100 95 93 112 108 109 131 157 201 248 253 281 332 352 330 32 18 7 352 290 282 279 278 284 286 283 274 262 252 253 258 260 263 263 250
112 104 89 83 50 18 10 26 35 37 43 31 40 43 30 27 36 37 38 48 35 37 40 43 75 67 14 12 164 130 108 86 85 57 49 40 62 59 58 72 83 76 79 79 62 86 97 108 102 97 94 104 107 89 91 80 80 187 205 205 229 238 241 271 280 292 302 282 271 272 279 284 278 264 264 265 266 273 215 230 239 243 251 255 255
139 136 138 132 124 121 99 42 25 10 14 22 37 44 48 60 48 39 37 17 14 49 58 48 41 64 78 37 19 10 26 74 42 85 96 74 48 77 103 91 78 94 92 73 101 116 121 108 93 97 98 123 131 116 77 53 28 355 357 344 248 234 215 241 265 306 252 267 251 232 248 249 257 271 272 279 275 271 252 241 239 227 227 251 296
134 138 141 140 133 115 86 73 61 24 14 7 17 39 39 27 40 57 24 18 22 4 16 25 35 34 29 32 54 15 337 60 51 29 39 33 46 48 57 44 19 4 351 345 127 96 47 68 186 87 49 38 106 72 40 18 12 358 346 341 344 352 0 356 359 6 343 315 306 267 234 238 244 253 248 235 228 228 245 294 334 351 355 352 337
162 166 175 165 154 130 116 107 87 58 37 8 4 13 28 41 40 41 4 43 21 25 6 39 50 66 65 20 38 54 15 8 98 102 69 38 16 20 32 69 49 21 11 8 353 24 36 17 332 40 20 328 46 53 39 340 359 5 326 331 340 351 351 334 26 9 327 306 291 270 251 232 211 249 270 278 336 8 16 343 305 351 341 324 343
150 154 141 116 114 122 114 101 99 107 116 105 3 4 2 24 35 34 24 25 354 331 92 63 34 37 19 13 24 48 40 353 5 57 108 92 53 46 23 25 67 77 70 44 38 46 10 355 346 56 41 23 29 45 51 3 15 335 298 280 287 302 302 294 317 316 289 289 283 293 290 298 353 291 301 342 1 0 12 350 344 38 329 342 358
151 153 152 150 143 140 126 120 119 124 126 136 120 65 27 11 16 23 31 39 6 20 19 55 49 42 20 347 16 31 34 33 8 2 11 88 133 74 42 37 58 106 91 82 78 82 59 40 19 55 86 82 85 54 22 8 353 339 314 289 275 265 269 281 308 323 265 251 280 283 283 263 224 264 269 10 7 307 21 2 349 343 330 342 12